Time,TemperatureF,DewpointF,PressureIn,WindDirection,WindDirectionDegrees,WindSpeedMPH,WindSpeedGustMPH,Humidity,HourlyPrecipIn,Conditions,Clouds,dailyrainin,SoftwareType,DateUTC
2013-07-28 17:03:00,81.0,72.0,29.91,SSE,165,0.0,-999.0,75,-99.99,,,-99.99,,2013-07-28 21:03:00,
2013-07-28 17:13:00,80.0,72.0,29.91,SSE,165,0.0,-999.0,76,-99.99,,,-99.99,,2013-07-28 21:13:00,
2013-07-28 17:22:00,80.0,72.0,29.91,SSE,165,0.0,-999.0,76,-99.99,,,-99.99,,2013-07-28 21:22:00,
2013-07-28 17:33:00,78.0,70.0,29.92,SSW,207,0.0,-999.0,77,-99.99,,,-99.99,,2013-07-28 21:33:00,
2013-07-28 17:44:00,78.0,70.0,29.93,SSE,154,1.0,-999.0,76,-99.99,,,-99.99,,2013-07-28 21:44:00,
2013-07-28 17:52:00,78.0,70.0,29.93,SSE,154,1.0,-999.0,76,-99.99,,,-99.99,,2013-07-28 21:52:00,
2013-07-28 18:02:00,77.0,69.0,29.93,South,186,0.0,-999.0,76,-99.99,,,-99.99,,2013-07-28 22:02:00,
2013-07-28 18:12:00,76.0,69.0,29.92,South,174,0.0,-999.0,80,-99.99,,,-99.99,,2013-07-28 22:12:00,
2013-07-28 18:22:00,76.0,69.0,29.92,South,174,0.0,-999.0,80,-99.99,,,-99.99,,2013-07-28 22:22:00,
2013-07-28 18:32:00,75.0,69.0,29.93,South,174,0.0,-999.0,81,-99.99,,,-99.99,,2013-07-28 22:32:00,
2013-07-28 18:43:00,75.0,69.0,29.92,South,174,0.0,-999.0,82,-99.99,,,-99.99,,2013-07-28 22:43:00,
2013-07-28 18:52:00,75.0,69.0,29.92,South,174,0.0,-999.0,82,-99.99,,,-99.99,,2013-07-28 22:52:00,
2013-07-28 19:03:00,76.0,71.0,29.92,South,174,0.0,-999.0,84,-99.99,,,-99.99,,2013-07-28 23:03:00,
2013-07-28 19:12:00,76.0,71.0,29.93,South,174,0.0,-999.0,84,-99.99,,,-99.99,,2013-07-28 23:12:00,
2013-07-28 19:22:00,76.0,71.0,29.93,South,174,0.0,-999.0,84,-99.99,,,-99.99,,2013-07-28 23:22:00,
2013-07-28 19:32:00,76.0,71.0,29.93,South,174,0.0,-999.0,85,-99.99,,,-99.99,,2013-07-28 23:32:00,
2013-07-28 19:43:00,77.0,72.0,29.93,South,174,0.0,-999.0,86,-99.99,,,-99.99,,2013-07-28 23:43:00,
2013-07-28 19:53:00,77.0,72.0,29.93,South,174,0.0,-999.0,86,-99.99,,,-99.99,,2013-07-28 23:53:00,
2013-07-28 20:03:00,76.0,71.0,29.94,South,174,0.0,-999.0,84,-99.99,,,-99.99,,2013-07-29 00:03:00,
2013-07-28 20:22:00,75.0,71.0,29.95,South,174,0.0,-999.0,87,-99.99,,,-99.99,,2013-07-29 00:22:00,
2013-07-28 20:32:00,72.0,68.0,29.96,South,174,0.0,-999.0,88,-99.99,,,-99.99,,2013-07-29 00:32:00,
2013-07-28 20:52:00,71.0,68.0,29.96,South,174,0.0,-999.0,90,-99.99,,,-99.99,,2013-07-29 00:52:00,
2013-07-28 21:02:00,70.0,68.0,29.96,South,174,0.0,-999.0,92,-99.99,,,-99.99,,2013-07-29 01:02:00,
2013-07-28 21:14:00,70.0,68.0,29.97,South,174,0.0,-999.0,93,-99.99,,,-99.99,,2013-07-29 01:14:00,
2013-07-28 21:29:00,70.0,68.0,29.97,South,174,0.0,-999.0,93,-99.99,,,-99.99,,2013-07-29 01:29:00,
2013-07-28 21:36:00,70.0,68.0,29.97,South,174,0.0,-999.0,93,-99.99,,,-99.99,,2013-07-29 01:36:00,
2013-07-28 21:58:00,69.0,67.0,29.97,South,174,0.0,-999.0,94,-99.99,,,-99.99,,2013-07-29 01:58:00,
2013-07-28 22:06:00,69.0,67.0,29.98,South,174,0.0,-999.0,93,-99.99,,,-99.99,,2013-07-29 02:06:00,
2013-07-28 22:14:00,69.0,66.0,29.99,SW,216,0.0,-999.0,90,-99.99,,,-99.99,,2013-07-29 02:14:00,
2013-07-28 22:26:00,69.0,66.0,29.99,SW,216,0.0,-999.0,90,-99.99,,,-99.99,,2013-07-29 02:26:00,
2013-07-28 22:37:00,69.0,64.0,29.99,West,279,0.0,-999.0,84,-99.99,,,-99.99,,2013-07-29 02:37:00,
2013-07-28 22:57:00,70.0,63.0,29.99,NW,317,0.0,-999.0,78,-99.99,,,-99.99,,2013-07-29 02:57:00,
2013-07-28 23:17:00,70.0,62.0,29.99,NW,317,0.0,-999.0,75,-99.99,,,-99.99,,2013-07-29 03:17:00,
2013-07-28 23:24:00,70.0,62.0,29.99,NW,317,0.0,-999.0,75,-99.99,,,-99.99,,2013-07-29 03:24:00,
2013-07-28 23:37:00,70.0,61.0,29.99,WNW,298,0.0,-999.0,74,-99.99,,,-99.99,,2013-07-29 03:37:00,
2013-07-28 23:48:00,70.0,61.0,29.99,WNW,299,0.0,-999.0,74,-99.99,,,-99.99,,2013-07-29 03:48:00,
2013-07-28 23:57:00,70.0,61.0,29.99,WNW,299,0.0,-999.0,74,-99.99,,,-99.99,,2013-07-29 03:57:00,